Flag for Vietnam Weather past 2 weeks in Hanoi, Vietnam

Now
79 °F

Partly sunny.


Feels Like: 83 °F
Forecast: 76 / 88 °F
Wind: 3 mph from North

Location: Ha Noi Airport

Current Time: Sep 2, 2014 at 6:00:37 PM

Latest Report: Sep 2, 2014 at 5:30 PM


Visibility: N/A

Pressure: 29.77 "Hg

Humidity: 94%

Dew point: 77 °F

Location of HanoiLocation

Historic Weather in Hanoi — Graph

°F

Hanoi temperature yesterday

Maximum temperature yesterday: 84 °F (at 10:30 AM)
Minimum temperature yesterday: 77 °F (at 4:30 AM)
Average temperature yesterday: 81 °F

Past Weeks' High & Low Weather Summary

 TemperatureHumidityPressure
High93 °F (Aug 31, 2:30 PM)100% (Aug 19, 6:30 AM)29.92 "Hg (Aug 19, 6:30 AM)
Low75 °F (Aug 29, 1:30 PM)59% (Aug 31, 3:00 PM)29.62 "Hg (Aug 18, 5:00 PM)
Average82 °F88%29.77 "Hg
* Reported Aug 18 5:00 PM — Sep 2 5:00 PM, Hanoi, Weather by CustomWeather, © 2014

Note: Actual official high and low records may vary slightly from our data, if they occured in-between our weather recording intervals... More about our weather records

Advertising

Hanoi weather history for previous 24 hours

 ConditionsComfort  
Time TempWeatherWind HumidityBarometerVisibility
5:00 PM
Sep 2
79 °FBroken clouds.1 mph94%29.77 "HgN/A
4:30 PM79 °FLight rain. Broken clouds.5 mph94%29.77 "HgN/A
4:00 PM79 °FLight rain. Broken clouds.9 mph89%29.80 "HgN/A
3:30 PM81 °FThunderstorms. Broken clouds.5 mph89%29.77 "HgN/A
3:00 PM79 °FBroken clouds.3 mph94%29.77 "HgN/A
2:30 PM79 °FThunderstorms. Broken clouds.18 mph94%29.80 "Hg2 mi
2:00 PM86 °FThunderstorms. Broken clouds.7 mph75%29.80 "HgN/A
1:30 PM88 °FThunderstorms. Broken clouds.9 mph70%N/AN/A
1:00 PM88 °FBroken clouds.8 mph70%29.80 "HgN/A
12:30 PM88 °FBroken clouds.8 mphN/AN/AN/A
12:00 PM86 °FBroken clouds.9 mph75%29.83 "HgN/A
11:30 AM86 °FBroken clouds.9 mph75%29.83 "HgN/A
11:00 AM84 °FBroken clouds.9 mph79%29.86 "HgN/A
10:30 AM84 °FBroken clouds.7 mph79%29.86 "HgN/A
10:00 AM84 °FBroken clouds.7 mph79%29.86 "HgN/A
9:30 AM82 °FPartly sunny.8 mph89%29.86 "HgN/A
9:00 AM81 °FPartly sunny.8 mph94%29.86 "HgN/A
8:30 AM81 °FPartly sunny.7 mph94%29.86 "HgN/A
8:00 AM77 °FLight rain. Broken clouds.6 mph100%29.86 "HgN/A
7:30 AM77 °FLight rain. Broken clouds.8 mph100%29.83 "HgN/A
7:00 AM77 °FLight rain. Broken clouds.8 mph100%29.83 "Hg6 mi
6:30 AM77 °FLight rain. Broken clouds.6 mph100%29.83 "Hg4 mi
6:00 AM77 °FBroken clouds.7 mph100%29.80 "Hg5 mi
5:30 AM77 °FLight rain. Partly cloudy.3 mph100%29.80 "Hg3 mi
5:00 AM77 °FPassing clouds.7 mph100%29.80 "HgN/A
4:30 AM77 °FLight rain. Partly cloudy.8 mph94%29.77 "Hg4 mi
4:00 AM77 °FPassing clouds.8 mph94%29.77 "HgN/A
3:30 AM77 °FPassing clouds.6 mph94%29.77 "HgN/A
3:00 AM77 °FPassing clouds.6 mph94%29.77 "HgN/A
2:30 AM77 °FPassing clouds.6 mph100%29.77 "HgN/A
2:00 AM77 °FPassing clouds.6 mph100%29.77 "HgN/A
1:30 AM77 °FPassing clouds.6 mph100%29.80 "HgN/A
1:00 AM77 °FPassing clouds.8 mph100%29.80 "HgN/A
12:30 AM77 °FLight rain. Partly cloudy.7 mph100%29.80 "HgN/A
12:00 AM77 °FLight rain. Partly cloudy.10 mph100%29.80 "HgN/A
11:30 PM
Sep 1
77 °FLight rain. Partly cloudy.7 mph100%29.80 "Hg3 mi
11:00 PM77 °FThunderstorms. Partly cloudy.8 mph100%29.83 "Hg3 mi
10:30 PM77 °FThunderstorms. Partly cloudy.15 mph100%29.80 "Hg1 mi
10:00 PM79 °FThundershowers. Partly cloudy.3 mph100%29.80 "Hg4 mi
9:30 PM79 °FPartly cloudy.1 mph100%29.80 "HgN/A
9:00 PM79 °FPartly cloudy.3 mph100%29.77 "HgN/A
8:30 PM79 °FLight rain. Partly cloudy.5 mph94%29.77 "HgN/A
8:00 PM81 °FPartly cloudy.5 mph94%29.77 "HgN/A
7:30 PM81 °FClear.1 mph89%29.74 "Hg10 mi
7:00 PM81 °FPartly cloudy.3 mph89%29.74 "HgN/A
6:30 PM81 °FPassing clouds.5 mph89%29.74 "HgN/A
6:00 PM82 °FPartly sunny.2 mph84%29.71 "HgN/A
Weather by CustomWeather, © 2014

See weather overviewHow to use our weather pages